User: anonymous   Login
Location: Chiroubles
(46.1812°N, 4.6660°E)
Time: 02:13:22
(UTC+00:00)
Language:

Explorer 11/Cluster Stage 4 - Orbit

View from above orbital plane
View from above orbital plane
View from above satellite
View from above satellite

Ground track
Ground track

The orbit data is extracted from the following two-line orbital elements,

1 00107U 61013A   21337.48943096  .00001180  00000-0  13781-3 0  9991
2 00107  28.7920  44.4803 0544742 305.3867  49.6978 14.09459880 41623
Epoch (UTC): 03 December 2021 11:44:46
Eccentricity: 0.0544742
inclination: 28.7920°
perigee height: 467 km
apogee height: 1255 km
right ascension of ascending node: 44.4803°
argument of perigee: 305.3867°
revolutions per day: 14.09459880
mean anomaly at epoch: 49.6978°
orbit number at epoch: 4162

The dashed part of the orbit path shows where the satellite is in the earth's shadow,  

DLR